Skip Page Navigation
NASA JPL Caltech
NASA Logo - Jet Propulsion Laboratory + View the NASA Portal
+ Center for Near-Earth Object Studies
JPL Home Earth Solar System Stars & Galaxies Technology
JPL Solar System Dynamics
BODIES ORBITS EPHEMERIDES TOOLS PHYSICAL DATA DISCOVERY FAQ SITE MAP
IMPORTANT: The SSD Announcement email list is now available. Major changes are coming in the near future, including possible hostname and/or URL changes. To be notified of such changes, subscribe to this email list.

Please visit this page for more details.


JPL Small-Body Database Browser
Search: [ help ]  
80882 (2000 DX40)
Classification: Main-belt Asteroid          SPK-ID: 2080882
Ephemeris | Orbit Diagram | Orbital Elements | Mission Design | Physical Parameters | Discovery Circumstances | Close-Approach Data ]

[ show orbit diagram ]
Orbital Elements at Epoch 2458600.5 (2019-Apr-27.0) TDB
Reference: JPL 13 (heliocentric ecliptic J2000)
 Element Value Uncertainty (1-sigma)   Units 
e .1126001313188451 5.5969e-08  
a 2.383826101066357 1.3086e-08 au
q 2.115406969044995 1.3254e-07 au
i 2.590627769592156 5.9982e-06 deg
node 330.4845402540731 0.00013065 deg
peri 189.2211034127295 0.00013321 deg
M 72.09389294655718 2.7577e-05 deg
tp 2458331.280657415016
(2018-Jul-31.78065741)
0.00010214 TDB
period 1344.343596515724
3.68
1.107e-05
3.031e-08
d
yr
n .2677886820996134 2.205e-09 deg/d
Q 2.65224523308772 1.456e-08 au
  Orbit Determination Parameters
   # obs. used (total)      468  
   data-arc span      8542 days (23.39 yr)  
   first obs. used      1994-09-03  
   last obs. used      2018-01-22  
   planetary ephem.      DE431  
   SB-pert. ephem.      SB431-N16  
   condition code      0  
   norm. resid. RMS      .58771  
   source      ORB  
   producer      Otto Matic  
   solution date      2018-Feb-05 21:53:19  

Additional Information
 Earth MOID = 1.12464 au 
 Jupiter MOID = 2.33031 au 
 T_jup = 3.527 
[ show covariance matrix ]

Ephemeris | Orbit Diagram | Orbital Elements | Mission Design | Physical Parameters | Discovery Circumstances | Close-Approach Data ]

Physical Parameter Table
Parameter Symbol Value Units Sigma Reference Notes
absolute magnitude H 16.0   n/a MPO432358  

80882 (2000 DX40)          Discovered 2000-Feb-29 by LINEAR at Socorro
Reference: 20040504/Numbers.arcLast Updated: 2004-07-16

[ show close-approach data ]
Ephemeris | Orbit Diagram | Orbital Elements | Mission Design | Physical Parameters | Discovery Circumstances | Close-Approach Data ]
ABOUT SSD CREDITS/AWARDS PRIVACY/COPYRIGHT GLOSSARY LINKS
FirstGov 2020-Jan-27 00:25 UT
(server date/time)  
NASA Home Page
Site Manager:   Ryan S. Park
Webmaster  Alan B. Chamberlin